| time (UTC) | temp C | wind direction | speed KPH | gust KPH | rain 1hr cm | rain 24hr cm | rain mn cm | humidity % | barometer mb |
| 20260506134645 | 12 | 172 | 3.2 | 8.0 | 0.08 | 0.41 | 0.41 | 100 | 1006.6 |
| 20260506133633 | 12 | 204 | 1.6 | 4.8 | 0.05 | 0.38 | 0.38 | 100 | 1006.8 |
| 20260506132620 | 12 | 230 | 0.0 | 4.8 | 0.05 | 0.38 | 0.38 | 100 | 1007.0 |
| 20260506131644 | 12 | 227 | 1.6 | 3.2 | 0.05 | 0.36 | 0.36 | 100 | 1007.0 |
| 20260506130611 | 12 | 227 | 0.0 | 3.2 | 0.05 | 0.33 | 0.33 | 99 | 1007.0 |
| 20260506125608 | 12 | 218 | 1.6 | 3.2 | 0.08 | 0.33 | 0.33 | 99 | 1006.8 |
| 20260506124625 | 12 | 185 | 1.6 | 8.0 | 0.10 | 0.33 | 0.33 | 99 | 1006.8 |
| 20260506123612 | 12 | 171 | 1.6 | 4.8 | 0.15 | 0.33 | 0.33 | 99 | 1006.9 |
| 20260506122603 | 12 | 253 | 0.0 | 1.6 | 0.20 | 0.33 | 0.33 | 99 | 1006.9 |
| 20260506121624 | 12 | 253 | 0.0 | 0.0 | 0.23 | 0.30 | 0.30 | 99 | 1006.9 |
| 20260506120645 | 12 | 253 | 0.0 | 0.0 | 0.23 | 0.28 | 0.28 | 98 | 1007.3 |
| 20260506115643 | 12 | 253 | 0.0 | 3.2 | 0.20 | 0.25 | 0.25 | 98 | 1007.4 |
| 20260506113607 | 12 | 253 | 0.0 | 1.6 | 0.13 | 0.18 | 0.18 | 97 | 1007.4 |
| 20260506111618 | 12 | 253 | 0.0 | 0.0 | 0.05 | 0.08 | 0.08 | 96 | 1007.4 |
| 20260506110635 | 12 | 253 | 0.0 | 1.6 | 0.05 | 0.05 | 0.05 | 95 | 1007.0 |
| 20260506105630 | 12 | 253 | 1.6 | 3.2 | 0.05 | 0.05 | 0.05 | 94 | 1006.9 |
| 20260506103605 | 12 | 253 | 0.0 | 1.6 | 0.05 | 0.08 | 0.05 | 93 | 1006.9 |
| 20260506102630 | 12 | 253 | 0.0 | 0.0 | 0.03 | 0.05 | 0.03 | 92 | 1006.9 |
| 20260506101632 | 12 | 253 | 0.0 | 1.6 | 0.03 | 0.05 | 0.03 | 92 | 1006.9 |
| 20260506100617 | 12 | 253 | 1.6 | 1.6 | 0.00 | 0.03 | 0.00 | 91 | 1007.2 |
| 20260506095641 | 13 | 253 | 0.0 | 1.6 | 0.00 | 0.03 | 0.00 | 89 | 1006.9 |
| 20260506094634 | 13 | 253 | 0.0 | 0.0 | 0.00 | 0.03 | 0.00 | 88 | 1006.9 |
| 20260506093620 | 13 | 253 | 0.0 | 0.0 | 0.00 | 0.03 | 0.00 | 87 | 1006.7 |
| 20260506092636 | 13 | 253 | 0.0 | 3.2 | 0.00 | 0.03 | 0.00 | 86 | 1007.1 |
| 20260506091644 | 13 | 253 | 0.0 | 3.2 | 0.00 | 0.03 | 0.00 | 84 | 1007.1 |
| 20260506090611 | 14 | 253 | 0.0 | 3.2 | 0.00 | 0.03 | 0.00 | 81 | 1007.0 |
| 20260506085619 | 14 | 253 | 0.0 | 1.6 | 0.00 | 0.03 | 0.00 | 77 | 1007.1 |
| 20260506084614 | 15 | 253 | 0.0 | 3.2 | 0.00 | 0.03 | 0.00 | 74 | 1007.1 |
| 20260506082630 | 15 | 266 | 1.6 | 16.1 | 0.00 | 0.03 | 0.00 | 70 | 1007.7 |
| 20260506081639 | 15 | 240 | 4.8 | 12.9 | 0.00 | 0.03 | 0.00 | 69 | 1007.7 |
| 20260506080600 | 15 | 233 | 3.2 | 11.3 | 0.00 | 0.03 | 0.00 | 68 | 1007.5 |
| 20260506072611 | 16 | 267 | 6.4 | 32.2 | 0.00 | 0.10 | 0.00 | 63 | 1007.8 |
| 20260506071601 | 16 | 268 | 9.7 | 25.7 | 0.00 | 0.10 | 0.00 | 62 | 1007.8 |
| 20260506070600 | 16 | 275 | 9.7 | 19.3 | 0.00 | 0.10 | 0.00 | 59 | 1008.0 |
| 20260506061610 | 14 | 298 | 0.0 | 1.6 | 0.00 | 0.10 | 0.00 | 68 | 1008.0 |
| 20260506060613 | 15 | 328 | 0.0 | 0.0 | 0.00 | 0.10 | 0.00 | 66 | 1008.0 |
| 20260506050603 | 15 | 328 | 0.0 | 1.6 | 0.00 | 0.10 | 0.00 | 65 | 1008.5 |
| 20260506044638 | 15 | 328 | 0.0 | 1.6 | 0.00 | 0.10 | 0.00 | 67 | 1008.6 |
| 20260506043622 | 15 | 328 | 0.0 | 0.0 | 0.00 | 0.10 | 0.00 | 68 | 1008.6 |
| 20260506042612 | 14 | 328 | 0.0 | 1.6 | 0.00 | 0.10 | 0.00 | 70 | 1008.7 |
| 20260506041634 | 14 | 328 | 0.0 | 0.0 | 0.00 | 0.10 | 0.00 | 71 | 1008.7 |
| 20260506040634 | 14 | 328 | 0.0 | 0.0 | 0.00 | 0.10 | 0.00 | 69 | 1008.7 |
| 20260506035618 | 14 | 328 | 0.0 | 0.0 | 0.00 | 0.10 | 0.10 | 70 | 1008.5 |
| 20260506032604 | 15 | 328 | 0.0 | 1.6 | 0.00 | 0.10 | 0.10 | 71 | 1008.4 |
| 20260506030626 | 15 | 328 | 0.0 | 0.0 | 0.00 | 0.10 | 0.10 | 73 | 1008.5 |
| 20260506025645 | 15 | 328 | 0.0 | 0.0 | 0.00 | 0.10 | 0.10 | 72 | 1008.6 |
| 20260506024622 | 15 | 328 | 0.0 | 0.0 | 0.00 | 0.10 | 0.10 | 72 | 1008.6 |
| 20260506023643 | 15 | 328 | 0.0 | 0.0 | 0.00 | 0.10 | 0.10 | 72 | 1008.8 |
| 20260506021622 | 15 | 328 | 0.0 | 4.8 | 0.00 | 0.10 | 0.10 | 71 | 1008.7 |
| 20260506020622 | 16 | 328 | 0.0 | 1.6 | 0.00 | 0.10 | 0.10 | 69 | 1008.5 |
| 20260506015631 | 16 | 328 | 1.6 | 3.2 | 0.00 | 0.10 | 0.10 | 69 | 1008.5 |
| 20260506013633 | 16 | 328 | 4.8 | 6.4 | 0.00 | 0.10 | 0.10 | 67 | 1008.4 |
| 20260506012637 | 17 | 260 | 0.0 | 3.2 | 0.00 | 0.10 | 0.10 | 64 | 1008.2 |
| 20260506011617 | 17 | 260 | 0.0 | 1.6 | 0.00 | 0.10 | 0.10 | 62 | 1008.2 |
| 20260506004635 | 18 | 208 | 0.0 | 8.0 | 0.00 | 0.10 | 0.10 | 56 | 1008.2 |
| 20260506003640 | 19 | 212 | 3.2 | 11.3 | 0.00 | 0.10 | 0.10 | 55 | 1008.0 |
| 20260506002645 | 19 | 237 | 1.6 | 16.1 | 0.00 | 0.10 | 0.10 | 54 | 1007.8 |
| 20260506001637 | 20 | 239 | 3.2 | 12.9 | 0.00 | 0.10 | 0.10 | 54 | 1007.8 |
| 20260506000640 | 20 | 264 | 8.0 | 19.3 | 0.00 | 0.10 | 0.10 | 55 | 1007.9 |
| 20260505235611 | 20 | 256 | 4.8 | 22.5 | 0.00 | 0.10 | 0.10 | 55 | 1007.8 |
| 20260505234630 | 20 | 241 | 6.4 | 12.9 | 0.00 | 0.10 | 0.10 | 55 | 1007.8 |
| 20260505233604 | 20 | 227 | 4.8 | 16.1 | 0.00 | 0.10 | 0.10 | 55 | 1007.7 |
| 20260505232640 | 20 | 255 | 3.2 | 8.0 | 0.00 | 0.10 | 0.10 | 56 | 1007.5 |
| 20260505231604 | 20 | 249 | 4.8 | 11.3 | 0.00 | 0.10 | 0.10 | 55 | 1007.5 |
| 20260505230634 | 20 | 234 | 3.2 | 17.7 | 0.00 | 0.10 | 0.10 | 54 | 1007.4 |
| 20260505225628 | 20 | 243 | 6.4 | 20.9 | 0.00 | 0.10 | 0.10 | 53 | 1007.7 |
| 20260505224629 | 20 | 230 | 4.8 | 16.1 | 0.00 | 0.10 | 0.10 | 53 | 1007.7 |
| 20260505223606 | 20 | 245 | 6.4 | 19.3 | 0.00 | 0.10 | 0.10 | 54 | 1007.8 |
| 20260505222602 | 20 | 270 | 6.4 | 16.1 | 0.00 | 0.10 | 0.10 | 56 | 1007.8 |
| 20260505221630 | 20 | 270 | 6.4 | 19.3 | 0.00 | 0.10 | 0.10 | 55 | 1007.8 |
| 20260505220638 | 20 | 252 | 4.8 | 20.9 | 0.00 | 0.10 | 0.10 | 54 | 1007.7 |
| 20260505215603 | 20 | 257 | 6.4 | 25.7 | 0.00 | 0.10 | 0.10 | 54 | 1007.7 |
| 20260505214608 | 20 | 260 | 3.2 | 16.1 | 0.00 | 0.10 | 0.10 | 55 | 1007.7 |
| 20260505213643 | 20 | 265 | 4.8 | 19.3 | 0.00 | 0.10 | 0.10 | 55 | 1007.7 |
| 20260505212619 | 20 | 274 | 9.7 | 29.0 | 0.00 | 0.10 | 0.10 | 55 | 1007.7 |
| 20260505211629 | 20 | 251 | 3.2 | 19.3 | 0.00 | 0.10 | 0.10 | 56 | 1007.7 |
| 20260505210644 | 19 | 266 | 4.8 | 14.5 | 0.00 | 0.10 | 0.10 | 59 | 1007.6 |
| 20260505205636 | 19 | 248 | 3.2 | 12.9 | 0.00 | 0.10 | 0.10 | 60 | 1007.6 |
| 20260505204605 | 18 | 262 | 4.8 | 12.9 | 0.00 | 0.10 | 0.10 | 62 | 1007.6 |
| 20260505203644 | 20 | 272 | 8.0 | 22.5 | 0.00 | 0.10 | 0.10 | 59 | 1007.7 |
| 20260505202632 | 22 | 245 | 8.0 | 22.5 | 0.00 | 0.10 | 0.10 | 43 | 1007.1 |
| 20260505201646 | 22 | 234 | 4.8 | 25.7 | 0.00 | 0.10 | 0.10 | 43 | 1007.1 |
| 20260505200618 | 22 | 240 | 9.7 | 19.3 | 0.00 | 0.10 | 0.10 | 43 | 1007.2 |
| 20260505194636 | 21 | 237 | 8.0 | 16.1 | 0.00 | 0.10 | 0.10 | 46 | 1007.3 |
| 20260505192611 | 22 | 221 | 11.3 | 22.5 | 0.00 | 0.10 | 0.10 | 42 | 1007.6 |
| 20260505191604 | 22 | 238 | 11.3 | 30.6 | 0.00 | 0.10 | 0.10 | 42 | 1007.6 |
| 20260505190628 | 22 | 244 | 14.5 | 38.6 | 0.00 | 0.10 | 0.10 | 41 | 1007.5 |
| 20260505185611 | 22 | 251 | 8.0 | 20.9 | 0.00 | 0.10 | 0.10 | 43 | 1007.3 |
| 20260505183600 | 22 | 202 | 8.0 | 32.2 | 0.00 | 0.10 | 0.10 | 40 | 1007.2 |
| 20260505182629 | 23 | 238 | 11.3 | 35.4 | 0.00 | 0.10 | 0.10 | 41 | 1007.2 |
| 20260505181627 | 23 | 203 | 16.1 | 41.8 | 0.00 | 0.10 | 0.10 | 39 | 1007.2 |
| 20260505175620 | 22 | 218 | 17.7 | 38.6 | 0.00 | 0.10 | 0.10 | 39 | 1007.8 |
| 20260505174633 | 22 | 219 | 16.1 | 33.8 | 0.00 | 0.10 | 0.10 | 39 | 1007.8 |
| 20260505173625 | 22 | 224 | 12.9 | 45.1 | 0.00 | 0.10 | 0.10 | 41 | 1007.8 |
| 20260505172613 | 22 | 247 | 11.3 | 35.4 | 0.00 | 0.10 | 0.10 | 44 | 1008.0 |
| 20260505171600 | 22 | 243 | 12.9 | 35.4 | 0.00 | 0.10 | 0.10 | 43 | 1008.0 |
| 20260505170621 | 21 | 248 | 12.9 | 32.2 | 0.00 | 0.10 | 0.10 | 44 | 1008.2 |
| 20260505165623 | 21 | 224 | 17.7 | 48.3 | 0.00 | 0.10 | 0.10 | 44 | 1008.3 |
| 20260505164645 | 21 | 222 | 19.3 | 43.5 | 0.00 | 0.10 | 0.10 | 42 | 1008.3 |
| 20260505163602 | 21 | 225 | 17.7 | 38.6 | 0.00 | 0.10 | 0.10 | 47 | 1008.4 |
| 20260505162601 | 21 | 226 | 11.3 | 33.8 | 0.00 | 0.10 | 0.10 | 47 | 1008.5 |
| 20260505161606 | 21 | 226 | 16.1 | 30.6 | 0.00 | 0.10 | 0.10 | 47 | 1008.5 |
| 20260505160625 | 21 | 238 | 8.0 | 25.7 | 0.00 | 0.10 | 0.10 | 50 | 1008.7 |
| 20260505152613 | 20 | 242 | 12.9 | 38.6 | 0.00 | 0.10 | 0.10 | 51 | 1009.2 |
| 20260505151640 | 20 | 232 | 8.0 | 24.1 | 0.00 | 0.10 | 0.10 | 54 | 1009.2 |
| 20260505150605 | 20 | 208 | 17.7 | 29.0 | 0.00 | 0.10 | 0.10 | 52 | 1009.1 |
| 20260505140613 | 20 | 217 | 11.3 | 24.1 | 0.00 | 0.10 | 0.10 | 56 | 1008.8 |